This is the latest recevied weather packets stored in our database for station/object KJ4AJP. If no packets are shown the sender has not sent any weather packets the latest 10 day(s).
| Time | Temp. | Humidity | Pressure | Rain* | Wind** | Luminosity | Snow |
|---|---|---|---|---|---|---|---|
| 1777902374 | 19.44° C | 60% | 1012.9 hPa | 0 mm | - | 158 W/m² | - |
| 1777902070 | 19.44° C | 61% | 1012.9 hPa | 0 mm | - | 201 W/m² | - |
| 1777901769 | 19.44° C | 62% | 1012.9 hPa | 0 mm | - | 129 W/m² | - |
| 1777901465 | 19.44° C | 62% | 1012.8 hPa | 0 mm | - | 123 W/m² | - |
| 1777901163 | 18.89° C | 63% | 1012.8 hPa | 0 mm | - | 116 W/m² | - |
| 1777900861 | 18.89° C | 63% | 1012.7 hPa | 0 mm | - | 111 W/m² | - |
| 1777900558 | 18.33° C | 64% | 1012.7 hPa | 0 mm | - | 110 W/m² | - |
| 1777900254 | 18.33° C | 64% | 1012.5 hPa | 0 mm | - | 104 W/m² | - |
| 1777899951 | 17.78° C | 65% | 1012.7 hPa | 0 mm | - | 99 W/m² | - |
| 1777899648 | 17.78° C | 65% | 1012.4 hPa | 0 mm | - | 91 W/m² | - |
| 1777899345 | 17.78° C | 66% | 1012.6 hPa | 0 mm | - | 98 W/m² | - |
| 1777899043 | 17.22° C | 67% | 1012.5 hPa | 0 mm | - | 103 W/m² | - |
| 1777898739 | 17.22° C | 67% | 1012.6 hPa | 0 mm | - | 101 W/m² | - |
| 1777898437 | 17.22° C | 67% | 1012.3 hPa | 0 mm | - | 95 W/m² | - |
| 1777898135 | 17.22° C | 67% | 1012.5 hPa | 0 mm | - | 89 W/m² | - |
| 1777897831 | 16.67° C | 67% | 1012.5 hPa | 0 mm | - | 83 W/m² | - |
| 1777897527 | 16.67° C | 69% | 1012.4 hPa | 0 mm | - | 79 W/m² | - |
| 1777897223 | 16.67° C | 68% | 1012.4 hPa | 0 mm | - | 77 W/m² | - |
| 1777896920 | 16.67° C | 68% | 1012.4 hPa | 0 mm | - | 70 W/m² | - |
| 1777896617 | 16.67° C | 68% | 1012.5 hPa | 0 mm | - | 64 W/m² | - |
| 1777896314 | 16.11° C | 68% | 1012.4 hPa | 0 mm | - | 61 W/m² | - |
| 1777896012 | 16.11° C | 69% | 1012.5 hPa | 0 mm | - | 55 W/m² | - |
| 1777895710 | 16.11° C | 69% | 1012.4 hPa | 0 mm | - | 50 W/m² | - |
| 1777895406 | 15.56° C | 70% | 1012.4 hPa | 0 mm | - | 46 W/m² | - |
| 1777895104 | 15.56° C | 69% | 1012.3 hPa | 0 mm | - | 41 W/m² | - |
* Rain latest hour (hover to see other rain measurements)
** Current wind speed in m/s (hover to see current wind gust speed)